Regional Weather Roundup
Issued by NWS Upton, NY

Current Version | Previous Version | Text Only | Print | Product List | Glossary On
Versions: 1 2 3 4 5 6 7 8 9 10 11 12 13 14 15 16 17 18 19 20 21 22 23 24 25 26 27
000
ASUS41 KOKX 240208
RWROKX

REGIONAL WEATHER ROUNDUP
NATIONAL WEATHER SERVICE NEW YORK NY
900 PM EST THU FEB 23 2017

NOTE: "FAIR" INDICATES FEW OR NO CLOUDS BELOW 12,000 FEET WITH NO
SIGNIFICANT WEATHER AND/OR OBSTRUCTIONS TO VISIBILITY.

NYZ071-072-176-178-NJZ106-104-240300-
NEW YORK CITY METRO AREA

CITY           SKY/WX    TMP DP  RH WIND       PRES   REMARKS
Central Park   PTCLDY    56  49  77 CALM      29.91R
Wall St Helipt NOT AVBL
LaGuardia APRT MOCLDY    57  48  72 VRB5      29.88R
Kennedy INTL   MOCLDY    49  47  93 S7        29.90R
Breezy Point     N/A     45 N/A N/A S6          N/A
Newark/Liberty MOCLDY    58  49  72 S3        29.88R
Teterboro      PTCLDY    56  50  80 S5        29.87R
$$

NYZ177-179-078>081-240300-
LONG ISLAND NEW YORK

CITY           SKY/WX    TMP DP  RH WIND       PRES   REMARKS
Jones Beach      N/A     46 N/A N/A S12G18      N/A
Matinecock PT  NOT AVBL
Farmingdale    MOCLDY    50  46  86 SW8       29.90R
MacArthur/ISP  MOCLDY    51  48  89 SW16      29.89S
Shirley        CLEAR     50  47  89 S10       29.92R
Westhampton    PTCLDY    49  46  90 SW9       29.93R
Southampton    NOT AVBL
Bridgehampton  NOT AVBL
East Hampton     N/A     49  46  89 SW10      29.91S
Montauk          N/A     51  48  89 SW6       29.93R
$$

NYZ052-065-067-240300-
HUDSON VALLEY

CITY           SKY/WX    TMP DP  RH WIND       PRES   REMARKS
White Plains   CLEAR     48  46  93 CALM      29.88R
Newburgh       PTCLDY    61  54  77 CALM      29.87R
Montgomery     PTCLDY    51  47  86 CALM      29.85R
Poughkeepsie   PTCLDY    51  46  83 CALM      29.85R
Albany         PTCLDY    55  46  71 CALM      29.83R
$$

NJZ001-105-106-008-010-013-015-019>022-104-240300-
NEW JERSEY

CITY           SKY/WX    TMP DP  RH WIND       PRES   REMARKS
Newark/Liberty MOCLDY    58  49  72 S3        29.88R
Teterboro      PTCLDY    56  50  80 S5        29.87R
Caldwell       PTCLDY    53  48  83 CALM      29.88R
Somerville     PTCLDY    51  48  89 CALM      29.86R
Linden         NOT AVBL
Sussex         MOCLDY    52  49  89 CALM      29.87R
Andover          N/A     49  46  90 SW3       29.87R
Trenton        MOCLDY    61  53  75 S5        29.88R
Millville      CLEAR     57  52  83 S5        29.90S
Atlantic City  CLEAR     58  49  72 S10       29.91R
Wrightstown    PTCLDY    58  51  77 S3        29.87R
Toms River     NOT AVBL
Belmar         CLEAR     58  50  75 SW8       29.91R
$$

PAZ047>061-062-071-240300-
EASTERN PENNSYLVANIA

CITY           SKY/WX    TMP DP  RH WIND       PRES   REMARKS
Philadelphia   PTCLDY    63  51  65 SW9       29.89R
Allentown      CLOUDY    66  52  60 SW8       29.86R
Scranton       CLOUDY    63  53  70 VRB5      29.86R THUNDER
$$

CTZ002-004>006-009-010-012-RIZ004-006-007-MAZ004-011-015-240300-
SOUTHERN NEW ENGLAND
 IN CT

CITY           SKY/WX    TMP DP  RH WIND       PRES   REMARKS
Bradley INTL   PTCLDY    51  48  89 S9        29.86R
Hartford       PTCLDY    51  48  89 S7        29.87S
Danbury        PTCLDY    49  46  90 CALM      29.89R
Wtrbury/Oxford PTCLDY    54  46  76 SW7       29.89R
Bridgeport     CLOUDY    47  43  86 CALM      29.89R FOG
Meriden        PTCLDY    50  47  89 CALM      29.89R FOG
New Haven      CLOUDY    45  44  97 CALM      29.89R FOG
Chester          N/A     50  48  93 SW7       29.89S FOG
Groton         CLEAR     44  43  96 CALM      29.91R
Wilimantic     CLEAR     49  46  90 CALM      29.89R

 IN RI

CITY           SKY/WX    TMP DP  RH WIND       PRES   REMARKS
Providence     PTCLDY    54  49  83 W12       29.89R
Block Island   CLOUDY    47  46  97 SW14      29.92S
Westerly       PTCLDY    49  45  86 SW10      29.91S
 IN MA

CITY           SKY/WX    TMP DP  RH WIND       PRES   REMARKS
Boston         PTCLDY    53  49  86 SW18      29.84R
Worcester      CLEAR     50  46  86 SW15      29.85R
Westfield      CLEAR     48  46  93 S8        29.84R
Provincetown   LGT RAIN  44  43  96 S13G21    29.88R VSB 1/2
Nantucket      CLEAR     44  42  93 SW12      29.94R FOG
$$

ANZ330-335-338-340-345-350-353-355-240300-
COASTAL MARINE OBSERVATIONS


STATION/POSITION TIME  SKY/WX   TEMP    WIND        PRES    VSBY  WAVE
                                AIR SEA DIR/SP/G                  HT/PER
                 (UTC)          (F)     (DEG/KT/KT) (MB)    (MI)  (FT/S)
NY HARB ENTRANCE 0050            47 42  210/ 14/ 16 1011.4          4/11
20 S FIRE ISLAND 0050            48 43  210/ 16/ 17 1012.0          5/10
GREAT SOUTH BAY  NOT AVBL
23 SSW MONTAUK P 0050            49 46              1013.2          4/11
15 E BARNEGAT LI 0130               42                N/A           4/12
HUDSON CANYON    0050               49              1013.8          4/11
KINGS POINT      0130            49 40              1011.6
EXECUTION ROCKS  NOT AVBL
CENTRAL LI SOUND 0130            45     190/  8/ 10   N/A           1
EASTERN LI SOUND NOT AVBL
ROBBINS REEF     0130            57     170/ 12/ 12 1011.7
$$


>>>>>>>>>>>>>>>>>>>>>>>>>>>> KEY <<<<<<<<<<<<<<<<<<<<<<<<<<<
>                                                          <
>     SKY/WX - Sky Condition/Present Weather               <
>     TMP    - Temperature in Fahrenheit                   <
>     DP     - Dew Point in Fahrenheit                     <
>     RH     - Relative Humidity in Percent                <
>     WIND   - Direction (from) and Speed in MPH           <
>     PRES   - Mean Sea Level Pressure (inches of Hg)      <
>     WCI    - Wind Chill Index                            <
>     VSB    - VISIBILITY IN MILES                         <
>     HX     - HEAT INDEX                                  <
>     TC     - TEMPERATURE IN CELSIUS                      <
>     VRB    - VARIABLE WIND DIRECTION                     <
>                                                          <
>>>>>>>>>>>>>>>>>>>>>>>>>>>> KEY <<<<<<<<<<<<<<<<<<<<<<<<<<<




USA.gov is the U.S. government's official web portal to all federal, state and local government web resources and services.